FW3711 Weather Reports


Display with metric or nautical units.
time (UTC)temp
F
wind
direction
speed
MPH
gust
MPH
rain 1hr
in
rain 24hr
in
rain mn
in
humidity
%
barometer
mb
20201029173134 55 12 3.0 5.0 0.00 0.00 0.00 44 1036.9
20201029172036 55 34 3.0 5.0 0.00 0.00 0.00 45 1037.1
20201029171640 55 34 3.0 5.0 0.00 0.00 0.00 45 1037.0
20201029171038 55 47 3.0 5.0 0.00 0.00 0.00 45 1037.0
20201029170525 55 42 3.0 5.0 0.00 0.00 0.00 46 1037.0
20201029170143 55 22 3.0 7.0 0.00 0.00 0.00 45 1037.1
20201029165530 55 34 3.0 7.0 0.00 0.00 0.00 46 1037.2
20201029165042 55 46 3.0 5.0 0.00 0.00 0.00 46 1037.4
20201029164547 55 360 3.0 5.0 0.00 0.00 0.00 46 1037.4
20201029164026 55 57 3.0 4.0 0.00 0.00 0.00 45 1037.5
20201029163520 55 65 2.0 4.0 0.00 0.00 0.00 45 1037.4
20201029163057 54 26 2.0 9.0 0.00 0.00 0.00 45 1037.5
20201029162515 54 360 2.0 3.0 0.00 0.00 0.00 46 1037.6
20201029162030 54 360 2.0 3.0 0.00 0.03 0.00 46 1037.6
20201029161033 54 360 2.0 5.0 0.00 0.03 0.00 46 1037.6
20201029160517 53 360 2.0 4.0 0.00 0.03 0.00 47 1037.6
20201029160020 53 55 2.0 4.0 0.00 0.03 0.00 47 1037.6
20201029155522 53 46 2.0 9.0 0.00 0.03 0.00 47 1037.7
20201029155010 53 360 2.0 9.0 0.00 0.03 0.00 47 1037.7
20201029154519 53 360 2.0 4.0 0.00 0.03 0.00 49 1037.5
20201029154010 53 61 3.0 4.0 0.00 0.03 0.00 49 1037.5
20201029153511 53 342 3.0 4.0 0.00 0.03 0.00 49 1037.5
20201029152613 53 302 2.0 4.0 0.00 0.03 0.00 49 1037.6
20201029152006 53 360 2.0 3.0 0.00 0.04 0.00 49 1037.5
20201029151512 53 360 2.0 3.0 0.00 0.04 0.00 50 1037.3
20201029151108 52 360 2.0 3.0 0.00 0.04 0.00 50 1037.4
20201029150558 52 360 2.0 3.0 0.00 0.04 0.00 50 1037.3
20201029150221 51 360 2.0 3.0 0.00 0.04 0.00 53 1037.1
20201029145602 51 360 2.0 3.0 0.00 0.04 0.00 54 1037.1
20201029145103 51 360 1.0 3.0 0.00 0.04 0.00 54 1037.2
20201029144651 51 360 2.0 3.0 0.00 0.04 0.00 54 1036.9
20201029144051 51 360 1.0 3.0 0.00 0.04 0.00 53 1036.8
20201029143549 51 360 2.0 3.0 0.00 0.04 0.00 52 1036.7
20201029143135 50 360 2.0 3.0 0.00 0.04 0.00 53 1036.6
20201029142603 49 360 2.0 3.0 0.00 0.04 0.00 55 1036.5
20201029141626 47 360 1.0 5.0 0.00 0.04 0.00 60 1036.2
20201029141046 46 360 1.0 6.0 0.00 0.04 0.00 62 1036.1
20201029140549 45 360 1.0 6.0 0.00 0.04 0.00 63 1036.0
20201029140100 44 256 2.0 3.0 0.00 0.04 0.00 64 1035.9
20201029135542 44 244 2.0 3.0 0.00 0.04 0.00 65 1035.8
20201029135047 43 254 2.0 5.0 0.00 0.04 0.00 65 1035.7
20201029134712 43 247 2.0 7.0 0.00 0.04 0.00 66 1035.7
20201029134037 43 247 2.0 7.0 0.00 0.04 0.00 65 1035.5
20201029133540 43 247 2.0 4.0 0.00 0.04 0.00 64 1035.7
20201029133103 43 254 2.0 4.0 0.00 0.04 0.00 65 1035.5
20201029132601 43 253 2.0 4.0 0.00 0.04 0.00 64 1035.5
20201029131616 44 246 2.0 4.0 0.00 0.04 0.00 61 1035.3
20201029131041 45 261 2.0 4.0 0.00 0.04 0.00 61 1035.3
20201029130605 45 360 3.0 4.0 0.00 0.04 0.00 63 1035.3
20201029130050 44 360 2.0 4.0 0.00 0.04 0.00 64 1035.3
20201029125539 43 360 1.0 4.0 0.00 0.04 0.00 64 1035.1
20201029125047 43 263 1.0 4.0 0.00 0.04 0.00 64 1035.0
20201029124605 43 263 1.0 4.0 0.00 0.04 0.00 64 1034.9
20201029124042 43 259 2.0 4.0 0.00 0.04 0.00 64 1034.9
20201029123545 43 360 0.0 4.0 0.00 0.04 0.00 65 1035.0
20201029123108 43 262 2.0 4.0 0.00 0.04 0.00 65 1034.8
20201029122536 43 259 2.0 4.0 0.00 0.04 0.00 64 1034.8
20201029121642 44 265 3.0 6.0 0.00 0.04 0.00 63 1034.8
20201029121048 44 261 2.0 4.0 0.00 0.04 0.00 63 1034.9
20201029120533 44 264 2.0 3.0 0.00 0.04 0.00 62 1034.8
20201029120104 44 261 2.0 4.0 0.00 0.04 0.00 61 1034.7
20201029115527 45 263 2.0 3.0 0.00 0.04 0.00 61 1034.6
20201029115028 45 262 1.0 7.0 0.00 0.04 0.00 60 1034.5
20201029114526 46 263 2.0 7.0 0.00 0.04 0.00 59 1034.5
20201029114024 47 261 1.0 4.0 0.00 0.04 0.00 57 1034.5
20201029113528 48 360 3.0 4.0 0.00 0.04 0.00 56 1034.5
20201029113038 49 360 3.0 4.0 0.00 0.04 0.00 55 1034.4
20201029112532 49 360 1.0 4.0 0.00 0.04 0.00 55 1034.4
20201029111549 48 360 3.0 4.0 0.00 0.04 0.00 57 1034.3
20201029111042 47 360 3.0 4.0 0.00 0.04 0.00 57 1034.2
20201029110529 48 360 3.0 5.0 0.00 0.04 0.00 57 1034.0
20201029110054 47 360 3.0 6.0 0.00 0.04 0.00 59 1034.2
20201029105532 46 360 2.0 4.0 0.00 0.04 0.00 61 1034.2
20201029105022 45 360 2.0 3.0 0.00 0.04 0.00 62 1034.1
20201029104526 45 360 1.0 4.0 0.00 0.04 0.00 62 1034.1
20201029104020 45 360 3.0 4.0 0.00 0.04 0.00 60 1033.9
20201029103517 47 360 2.0 4.0 0.00 0.04 0.00 58 1033.8
20201029103057 47 360 1.0 4.0 0.00 0.04 0.00 59 1033.8
20201029102515 47 360 2.0 3.0 0.00 0.04 0.00 60 1033.7
20201029101535 46 360 2.0 4.0 0.00 0.04 0.00 61 1033.6
20201029101034 46 360 2.0 4.0 0.00 0.04 0.00 60 1033.5
20201029100520 46 360 3.0 5.0 0.00 0.04 0.00 60 1033.6
20201029100057 46 360 2.0 4.0 0.00 0.04 0.00 62 1033.5
20201029095025 45 360 2.0 4.0 0.00 0.04 0.00 64 1033.5
20201029094622 44 360 3.0 4.0 0.00 0.04 0.00 67 1033.4
20201029094015 42 360 3.0 4.0 0.00 0.04 0.00 69 1033.4
20201029093511 41 360 1.0 3.0 0.00 0.04 0.00 70 1033.4
20201029093029 41 248 2.0 3.0 0.00 0.04 0.00 70 1033.4
20201029092529 41 259 1.0 3.0 0.00 0.04 0.00 70 1033.5
20201029091519 41 360 0.0 3.0 0.00 0.04 0.00 70 1033.2
20201029090521 41 360 1.0 4.0 0.00 0.04 0.00 69 1033.2
20201029090030 41 360 1.0 8.0 0.00 0.04 0.00 69 1033.1
20201029085513 41 260 2.0 8.0 0.00 0.04 0.00 70 1032.7
20201029085033 41 241 2.0 3.0 0.00 0.04 0.00 69 1032.7
20201029084541 41 232 2.0 3.0 0.00 0.04 0.00 68 1032.5
20201029084021 42 237 2.0 4.0 0.00 0.04 0.00 69 1032.4
20201029083509 42 275 2.0 4.0 0.00 0.04 0.00 70 1032.4
20201029083050 41 265 1.0 3.0 0.00 0.04 0.00 71 1032.4
20201029082513 40 239 1.0 3.0 0.00 0.04 0.00 71 1032.3
20201029081526 41 234 2.0 3.0 0.00 0.04 0.00 70 1032.3
20201029081011 41 235 2.0 4.0 0.00 0.04 0.00 70 1032.3
20201029080506 41 243 2.0 4.0 0.00 0.04 0.00 71 1032.1
20201029080028 41 248 0.0 4.0 0.00 0.04 0.00 71 1032.3
20201029075512 41 234 2.0 3.0 0.00 0.04 0.00 71 1032.0
20201029075030 41 237 2.0 3.0 0.00 0.04 0.00 70 1032.2
20201029074513 41 229 2.0 3.0 0.00 0.04 0.00 70 1031.9
20201029074005 41 236 0.0 3.0 0.00 0.04 0.00 70 1032.3
20201029073509 41 236 2.0 3.0 0.00 0.04 0.00 70 1032.3
20201029073149 42 240 2.0 4.0 0.00 0.04 0.00 70 1032.1
20201029072606 41 360 2.0 4.0 0.00 0.04 0.00 70 1032.4
20201029071713 42 238 2.0 3.0 0.00 0.04 0.00 67 1032.2
20201029071059 43 242 2.0 4.0 0.00 0.04 0.00 66 1032.2
20201029070607 44 260 2.0 5.0 0.00 0.04 0.00 66 1032.3
20201029070200 44 262 2.0 5.0 0.00 0.04 0.00 67 1032.2
20201029065558 43 360 3.0 4.0 0.00 0.04 0.00 69 1032.2
20201029065054 42 266 2.0 4.0 0.00 0.04 0.00 69 1032.0
20201029064639 42 261 3.0 4.0 0.00 0.04 0.00 68 1031.9
20201029064052 42 244 2.0 8.0 0.00 0.04 0.00 67 1031.9
20201029063552 43 238 0.0 4.0 0.00 0.04 0.00 66 1032.0
20201029063116 43 233 2.0 4.0 0.00 0.04 0.00 65 1031.7
20201029062551 44 235 2.0 3.0 0.00 0.04 0.00 64 1031.9
20201029061643 45 227 2.0 4.0 0.00 0.04 0.04 62 1032.0
20201029061048 45 360 2.0 3.0 0.00 0.04 0.04 64 1032.2
20201029060555 45 360 1.0 3.0 0.00 0.04 0.04 64 1032.1
20201029060136 44 360 2.0 3.0 0.00 0.04 0.04 64 1032.0
20201029055545 44 360 1.0 3.0 0.00 0.04 0.04 64 1032.0
20201029055103 44 360 2.0 4.0 0.00 0.04 0.04 63 1032.0
20201029054619 45 360 3.0 4.0 0.00 0.04 0.04 62 1031.8
20201029054048 46 360 2.0 4.0 0.00 0.04 0.04 60 1032.0
20201029053550 46 360 2.0 4.0 0.00 0.04 0.04 60 1031.9
20201029053148 47 360 3.0 4.0 0.00 0.04 0.04 59 1031.9
20201029052550 48 360 3.0 4.0 0.00 0.04 0.04 58 1031.8
20201029051829 47 269 2.0 4.0 0.00 0.04 0.04 60 1032.0
20201029051056 46 360 3.0 9.0 0.00 0.04 0.04 62 1031.9
20201029050554 46 263 2.0 9.0 0.00 0.04 0.04 62 1032.0
20201029050107 46 253 3.0 8.0 0.00 0.04 0.04 61 1031.7
20201029045555 46 265 3.0 4.0 0.00 0.04 0.04 61 1031.6
20201029045056 46 265 2.0 6.0 0.00 0.04 0.04 62 1031.4
20201029044659 45 256 3.0 6.0 0.00 0.04 0.04 62 1031.4
20201029044055 45 261 3.0 9.0 0.00 0.04 0.04 63 1031.1
20201029043559 44 264 3.0 9.0 0.00 0.04 0.04 65 1031.3
20201029043210 43 267 3.0 4.0 0.00 0.04 0.04 67 1031.1
20201029042554 43 249 3.0 4.0 0.00 0.04 0.04 67 1031.0
20201029041655 43 245 3.0 4.0 0.00 0.04 0.04 66 1030.7
20201029041050 43 250 3.0 7.0 0.00 0.04 0.04 66 1030.7
20201029040558 43 248 3.0 7.0 0.00 0.04 0.04 67 1030.5
20201029040142 42 262 3.0 4.0 0.00 0.04 0.04 68 1030.5
20201029035609 42 253 3.0 4.0 0.00 0.04 0.04 69 1030.6
20201029035050 42 249 3.0 4.0 0.00 0.04 0.04 68 1030.9
20201029034710 42 234 1.0 4.0 0.00 0.04 0.04 66 1031.0
20201029034108 43 236 3.0 4.0 0.00 0.04 0.04 65 1030.9
20201029033600 43 252 0.0 3.0 0.00 0.04 0.04 65 1030.9
20201029033213 43 360 2.0 4.0 0.00 0.04 0.04 65 1030.8
20201029032600 43 360 2.0 4.0 0.00 0.04 0.04 65 1031.0
20201029031724 44 313 1.0 4.0 0.00 0.04 0.04 63 1030.7
20201029031103 44 305 2.0 4.0 0.00 0.04 0.04 63 1030.7
20201029030553 45 360 2.0 4.0 0.00 0.04 0.04 63 1030.7
20201029030151 45 360 2.0 4.0 0.00 0.04 0.04 63 1030.5
20201029025605 44 272 3.0 11.0 0.00 0.04 0.04 64 1030.2
20201029025054 43 259 2.0 7.0 0.00 0.04 0.04 66 1030.1
20201029024645 43 254 3.0 4.0 0.00 0.04 0.04 66 1029.9
20201029024052 42 240 3.0 4.0 0.00 0.04 0.04 67 1029.9
20201029023553 42 234 1.0 4.0 0.00 0.04 0.04 68 1030.1
20201029023146 42 246 2.0 4.0 0.00 0.04 0.04 68 1029.9
20201029022602 41 241 2.0 4.0 0.00 0.04 0.04 68 1029.7
20201029021602 41 240 2.0 3.0 0.00 0.04 0.04 66 1029.5
20201029021043 42 242 2.0 4.0 0.00 0.04 0.04 66 1029.4
20201029020542 42 247 2.0 4.0 0.00 0.04 0.04 65 1028.8
20201029020147 42 250 2.0 4.0 0.00 0.04 0.04 65 1028.8
20201029015556 42 360 2.0 4.0 0.00 0.04 0.04 65 1028.9
20201029015111 43 360 2.0 4.0 0.00 0.04 0.04 64 1028.9
20201029014610 43 245 2.0 4.0 0.00 0.04 0.04 64 1028.9
20201029014042 43 243 2.0 3.0 0.00 0.04 0.04 63 1028.7
20201029013610 43 242 2.0 4.0 0.00 0.04 0.04 62 1028.6
20201029013110 44 235 3.0 5.0 0.00 0.04 0.04 60 1028.4
20201029012554 45 95 2.0 5.0 0.00 0.04 0.04 59 1028.4
20201029011631 45 32 1.0 2.0 0.00 0.04 0.04 59 1028.7
20201029011037 45 33 1.0 2.0 0.00 0.04 0.04 59 1028.8
20201029010541 44 35 1.0 2.0 0.00 0.04 0.04 59 1028.6
20201029010118 44 39 1.0 3.0 0.00 0.04 0.04 59 1028.8
20201029005540 44 40 1.0 4.0 0.00 0.04 0.04 60 1029.0
20201029005036 44 360 1.0 4.0 0.00 0.04 0.04 60 1029.0
20201029004656 45 46 2.0 3.0 0.00 0.04 0.04 60 1029.1
20201029004108 45 40 2.0 4.0 0.00 0.04 0.04 59 1029.0
20201029003542 45 24 2.0 4.0 0.00 0.04 0.04 59 1029.0
20201029003131 45 349 2.0 3.0 0.00 0.04 0.04 59 1028.9
20201029002543 45 19 2.0 3.0 0.00 0.04 0.04 59 1028.9
20201029001653 46 28 2.0 4.0 0.00 0.04 0.04 58 1028.9
20201029001107 46 5 3.0 5.0 0.00 0.04 0.04 58 1028.8
20201029000552 46 27 2.0 4.0 0.00 0.04 0.04 57 1028.8
20201029000111 46 360 2.0 8.0 0.00 0.04 0.04 57 1028.9
20201028235547 47 38 2.0 8.0 0.00 0.04 0.04 57 1028.7
20201028235039 47 31 3.0 6.0 0.00 0.04 0.04 57 1028.5
20201028234647 47 19 2.0 9.0 0.00 0.04 0.04 56 1028.5
20201028234105 48 32 3.0 9.0 0.00 0.04 0.04 55 1028.4
20201028233538 49 37 3.0 8.0 0.00 0.04 0.04 53 1028.4
20201028233102 50 22 3.0 8.0 0.00 0.04 0.04 54 1028.2
20201028232539 50 355 4.0 8.0 0.00 0.04 0.04 53 1028.1
20201028231608 50 17 3.0 9.0 0.00 0.04 0.04 52 1028.2
20201028231108 51 360 2.0 9.0 0.00 0.04 0.04 51 1028.2
20201028230540 51 345 3.0 10.0 0.00 0.04 0.04 50 1028.2
20201028230156 51 341 4.0 9.0 0.00 0.04 0.04 50 1028.0
20201028225536 51 355 4.0 8.0 0.00 0.04 0.04 51 1028.1
20201028225043 51 360 3.0 6.0 0.00 0.04 0.04 50 1027.9
20201028224638 51 339 3.0 5.0 0.00 0.04 0.04 49 1028.0
20201028224040 51 355 3.0 5.0 0.00 0.04 0.04 49 1028.0
20201028223536 51 28 2.0 5.0 0.00 0.04 0.04 49 1028.0
20201028223131 51 5 3.0 6.0 0.00 0.04 0.04 48 1028.0
20201028222541 51 347 3.0 6.0 0.00 0.04 0.04 49 1027.9
20201028221618 51 329 3.0 5.0 0.00 0.04 0.04 46 1027.9
20201028221034 51 17 3.0 5.0 0.00 0.04 0.04 46 1027.8
20201028220537 51 345 3.0 8.0 0.00 0.04 0.04 46 1027.9
20201028220137 51 350 3.0 11.0 0.00 0.04 0.04 46 1027.7
20201028215536 51 355 3.0 11.0 0.00 0.04 0.04 45 1027.7
20201028215034 52 5 3.0 5.0 0.00 0.04 0.04 44 1027.7
20201028214607 52 325 3.0 8.0 0.00 0.04 0.04 45 1027.8
20201028214037 52 360 3.0 8.0 0.00 0.04 0.04 46 1027.6
20201028213544 51 309 3.0 5.0 0.00 0.04 0.04 46 1027.6
20201028213100 51 321 3.0 6.0 0.00 0.04 0.04 45 1027.6
20201028212531 51 317 3.0 6.0 0.00 0.04 0.04 46 1027.8
20201028211615 51 319 3.0 8.0 0.00 0.04 0.04 46 1028.0
20201028211033 51 309 4.0 11.0 0.00 0.04 0.04 46 1028.0
20201028210538 50 319 4.0 10.0 0.00 0.04 0.04 45 1027.9
20201028210126 51 300 3.0 15.0 0.00 0.04 0.04 46 1027.8
20201028205528 51 301 4.0 15.0 0.00 0.04 0.04 45 1027.8
20201028205035 50 360 3.0 10.0 0.00 0.04 0.04 47 1027.9
20201028204553 50 315 3.0 11.0 0.00 0.04 0.04 48 1027.8
20201028204036 50 360 4.0 14.0 0.00 0.04 0.04 49 1027.7
20201028203525 49 309 6.0 18.0 0.00 0.04 0.04 48 1027.8
20201028203041 49 304 7.0 18.0 0.00 0.04 0.04 50 1027.8
20201028202524 49 311 3.0 13.0 0.00 0.04 0.04 49 1027.8
20201028201613 49 312 4.0 16.0 0.00 0.04 0.04 51 1027.9
20201028201034 49 279 4.0 16.0 0.00 0.04 0.04 51 1028.0
20201028200524 49 360 4.0 11.0 0.00 0.04 0.04 51 1027.9
20201028200102 49 360 4.0 9.0 0.00 0.04 0.04 52 1027.9
20201028195539 48 360 4.0 10.0 0.00 0.04 0.04 53 1028.0
20201028195040 48 360 4.0 10.0 0.00 0.04 0.04 54 1028.0
20201028194529 48 360 3.0 15.0 0.00 0.04 0.04 53 1028.0
20201028194024 48 309 4.0 16.0 0.00 0.04 0.04 54 1028.1
20201028193535 47 319 3.0 11.0 0.00 0.04 0.04 56 1028.8
20201028193048 47 360 4.0 9.0 0.00 0.04 0.04 56 1028.5
20201028192520 47 360 3.0 8.0 0.00 0.04 0.04 57 1028.8
20201028191531 46 360 4.0 16.0 0.00 0.04 0.04 58 1029.0
20201028191022 46 360 3.0 8.0 0.00 0.04 0.04 58 1029.2
20201028190513 46 360 4.0 19.0 0.00 0.04 0.04 58 1029.2
20201028190023 46 360 4.0 14.0 0.00 0.04 0.04 58 1029.3
20201028185520 46 360 3.0 8.0 0.00 0.04 0.04 57 1029.4
20201028185031 46 360 3.0 5.0 0.00 0.04 0.04 58 1029.4
20201028184519 46 360 3.0 5.0 0.00 0.04 0.04 56 1029.3
20201028184011 46 293 3.0 5.0 0.00 0.04 0.04 57 1029.3
20201028183512 46 250 2.0 5.0 0.00 0.04 0.04 59 1029.5
20201028183025 45 360 3.0 9.0 0.00 0.04 0.04 61 1029.7
20201028182510 44 263 3.0 12.0 0.00 0.04 0.04 62 1029.7
20201028181518 43 360 4.0 11.0 0.00 0.04 0.04 65 1029.8
20201028181019 43 237 4.0 20.0 0.00 0.04 0.04 65 1029.9
20201028180514 43 257 4.0 15.0 0.00 0.04 0.04 65 1030.1
20201028180008 42 360 4.0 13.0 0.00 0.04 0.04 67 1029.8
20201028175605 42 360 7.0 20.0 0.00 0.04 0.04 67 1030.0
20201028175059 42 235 4.0 20.0 0.00 0.04 0.04 67 1030.2
20201028174639 41 360 4.0 18.0 0.00 0.04 0.04 69 1030.2
20201028174057 41 234 5.0 18.0 0.00 0.04 0.04 68 1030.2
20201028173557 40 261 5.0 15.0 0.00 0.04 0.04 68 1030.3
20201028173433 40 254 6.0 14.0 0.00 0.04 0.04 70 1030.0